When you browse on this site, cookies collect data to enhance your experience and personalize the content and advertising you see.
Visit our Privacy Policy to learn more. By continuing to use the site, you agree to this use of cookies and data.
  • In Denmark
  • List of Countries
  • For 7 days
  • Water Temperature
  • Weather Map
  • Weather Widgets
  • user-avatar
    Login

    Hourly Weather Retwiny

    Today, 12 November, Tuesday

    Time Temperature Precipitation Wind Pressure Humidity
    00:00 +1°C° 0 mm 5 mps 748 mmHg 78%
    01:00 +1°C° 0 mm 5 mps 748 mmHg 79%
    02:00 +2°C° 0 mm 5 mps 748 mmHg 80%
    03:00 +2°C° 0 mm 5 mps 747 mmHg 80%
    04:00 +2°C° 0 mm 5 mps 747 mmHg 81%
    05:00 +3°C° 0 mm 5 mps 746 mmHg 81%
    06:00 +3°C° 0 mm 5 mps 746 mmHg 81%
    07:00 +3°C° 0 mm 5 mps 746 mmHg 80%
    08:00 +5°C° 0 mm 5 mps 746 mmHg 77%
    09:00 +5°C° 0 mm 5 mps 746 mmHg 75%
    10:00 +6°C° 0 mm 5 mps 746 mmHg 72%
    11:00 +6°C° 0.1 mm 5 mps 746 mmHg 72%
    12:00 +7°C° 0.1 mm 4 mps 746 mmHg 73%
    13:00 +8°C° 0.1 mm 3 mps 746 mmHg 73%
    14:00 +8°C° 0 mm 3 mps 746 mmHg 75%
    15:00 +7°C° 0 mm 3 mps 746 mmHg 77%
    16:00 +7°C° 0 mm 2 mps 745 mmHg 79%
    17:00 +7°C° 0.1 mm 2 mps 745 mmHg 81%
    18:00 +7°C° 0.1 mm 3 mps 745 mmHg 82%
    19:00 +7°C° 0.1 mm 3 mps 745 mmHg 83%
    20:00 +7°C° 0.2 mm 3 mps 745 mmHg 85%
    21:00 +7°C° 0.2 mm 2 mps 745 mmHg 87%
    22:00 +7°C° 0.2 mm 2 mps 745 mmHg 89%
    23:00 +7°C° 0.4 mm 2 mps 744 mmHg 91%

    Tomorrow, 13 November, Wednesday

    Time Temperature Precipitation Wind Pressure Humidity
    00:00 +7°C° 0.4 mm 2 mps 744 mmHg 94%
    01:00 +7°C° 0.4 mm 2 mps 744 mmHg 96%
    02:00 +7°C° 0.1 mm 2 mps 743 mmHg 96%
    03:00 +7°C° 0.1 mm 2 mps 743 mmHg 96%
    04:00 +7°C° 0.1 mm 2 mps 742 mmHg 97%
    05:00 +7°C° 0.1 mm 2 mps 742 mmHg 97%
    06:00 +7°C° 0.1 mm 2 mps 742 mmHg 97%
    07:00 +7°C° 0.1 mm 2 mps 742 mmHg 97%
    08:00 +8°C° 0.5 mm 2 mps 741 mmHg 97%
    09:00 +9°C° 0.5 mm 1 mps 741 mmHg 96%
    10:00 +9°C° 0.5 mm 1 mps 741 mmHg 96%
    11:00 +9°C° 1.2 mm 1 mps 741 mmHg 96%
    12:00 +8°C° 1.2 mm 2 mps 741 mmHg 97%
    13:00 +8°C° 1.2 mm 2 mps 741 mmHg 97%
    14:00 +8°C° 0.3 mm 2 mps 741 mmHg 97%
    15:00 +8°C° 0.3 mm 2 mps 741 mmHg 97%
    16:00 +9°C° 0.3 mm 1 mps 741 mmHg 97%
    17:00 +9°C° 0.1 mm 1 mps 741 mmHg 97%
    18:00 +9°C° 0.1 mm 1 mps 742 mmHg 97%
    19:00 +9°C° 0.1 mm 1 mps 742 mmHg 97%
    20:00 +9°C° 0.1 mm 1 mps 741 mmHg 97%
    21:00 +8°C° 0.1 mm 2 mps 741 mmHg 97%
    22:00 +8°C° 0.1 mm 3 mps 741 mmHg 97%
    23:00 +7°C° 0.3 mm 4 mps 740 mmHg 95%

    Day after tomorrow, 14 November, Thursday

    Time Temperature Precipitation Wind Pressure Humidity
    00:00 +8°C° 0.3 mm 4 mps 740 mmHg 94%
    01:00 +8°C° 0.3 mm 5 mps 739 mmHg 92%
    02:00 +8°C° 0.3 mm 6 mps 740 mmHg 91%
    03:00 +6°C° 0.3 mm 7 mps 740 mmHg 90%
    04:00 +5°C° 0.3 mm 8 mps 740 mmHg 88%
    05:00 +5°C° 0 mm 6 mps 741 mmHg 88%
    06:00 +5°C° 0 mm 5 mps 743 mmHg 87%
    07:00 +4°C° 0 mm 4 mps 744 mmHg 86%
    08:00 +5°C° 0 mm 3 mps 745 mmHg 85%
    09:00 +5°C° 0 mm 3 mps 746 mmHg 83%
    10:00 +6°C° 0 mm 2 mps 747 mmHg 82%
    11:00 +6°C° 0 mm 2 mps 747 mmHg 80%
    12:00 +7°C° 0 mm 1 mps 747 mmHg 78%
    13:00 +7°C° 0 mm 0 mps 748 mmHg 76%
    14:00 +7°C° 0 mm 1 mps 748 mmHg 78%
    15:00 +7°C° 0 mm 1 mps 748 mmHg 80%
    16:00 +7°C° 0 mm 1 mps 748 mmHg 82%
    17:00 +6°C° 0 mm 2 mps 748 mmHg 84%
    18:00 +5°C° 0 mm 2 mps 748 mmHg 86%
    19:00 +4°C° 0 mm 3 mps 748 mmHg 88%
    20:00 +4°C° 0 mm 3 mps 748 mmHg 89%
    21:00 +4°C° 0 mm 3 mps 748 mmHg 90%
    22:00 +4°C° 0 mm 3 mps 748 mmHg 91%
    23:00 +5°C° 0 mm 3 mps 747 mmHg 91%

    15 November, Friday

    Time Temperature Precipitation Wind Pressure Humidity
    00:00 +5°C° 0 mm 4 mps 747 mmHg 92%
    01:00 +5°C° 0 mm 4 mps 747 mmHg 93%
    02:00 +5°C° 0 mm 4 mps 747 mmHg 94%
    03:00 +6°C° 0 mm 4 mps 747 mmHg 95%
    04:00 +7°C° 0 mm 3 mps 746 mmHg 96%
    05:00 +6°C° 0 mm 4 mps 746 mmHg 95%
    06:00 +6°C° 0 mm 4 mps 746 mmHg 95%
    07:00 +7°C° 0 mm 4 mps 746 mmHg 94%
    08:00 +7°C° 0 mm 5 mps 746 mmHg 91%
    09:00 +8°C° 0 mm 5 mps 747 mmHg 88%
    10:00 +9°C° 0 mm 5 mps 747 mmHg 85%
    11:00 +10°C° 0 mm 5 mps 747 mmHg 82%
    12:00 +10°C° 0 mm 5 mps 747 mmHg 79%
    13:00 +12°C° 0 mm 5 mps 747 mmHg 76%
    14:00 +12°C° 0 mm 5 mps 746 mmHg 78%
    15:00 +10°C° 0 mm 5 mps 746 mmHg 81%
    16:00 +9°C° 0 mm 5 mps 746 mmHg 84%
    17:00 +9°C° 0 mm 5 mps 746 mmHg 86%
    18:00 +9°C° 0 mm 5 mps 747 mmHg 87%
    19:00 +8°C° 0 mm 5 mps 747 mmHg 89%
    20:00 +8°C° 0 mm 5 mps 747 mmHg 90%
    21:00 +8°C° 0 mm 5 mps 747 mmHg 91%
    22:00 +8°C° 0 mm 5 mps 747 mmHg 92%
    23:00 +8°C° 0 mm 5 mps 747 mmHg 92%

    16 November, Saturday

    Time Temperature Precipitation Wind Pressure Humidity
    00:00 +8°C° 0 mm 5 mps 747 mmHg 93%
    01:00 +8°C° 0 mm 4 mps 747 mmHg 94%
    02:00 +8°C° 0 mm 4 mps 747 mmHg 93%
    03:00 +7°C° 0 mm 4 mps 747 mmHg 93%
    04:00 +7°C° 0 mm 4 mps 747 mmHg 92%
    05:00 +7°C° 0 mm 5 mps 747 mmHg 92%
    06:00 +7°C° 0 mm 5 mps 747 mmHg 92%
    07:00 +7°C° 0 mm 5 mps 747 mmHg 91%
    08:00 +8°C° 0 mm 5 mps 747 mmHg 87%
    09:00 +9°C° 0 mm 6 mps 747 mmHg 82%
    10:00 +10°C° 0 mm 6 mps 747 mmHg 78%
    11:00 +11°C° 0 mm 6 mps 747 mmHg 74%
    12:00 +13°C° 0 mm 5 mps 748 mmHg 70%
    13:00 +14°C° 0 mm 5 mps 748 mmHg 67%
    14:00 +13°C° 0 mm 5 mps 748 mmHg 70%
    15:00 +12°C° 0 mm 4 mps 748 mmHg 73%
    16:00 +12°C° 0 mm 4 mps 749 mmHg 76%
    17:00 +12°C° 0 mm 3 mps 749 mmHg 77%
    18:00 +12°C° 0 mm 3 mps 749 mmHg 78%
    19:00 +12°C° 0 mm 2 mps 750 mmHg 79%
    20:00 +12°C° 0 mm 2 mps 750 mmHg 80%
    21:00 +12°C° 0 mm 2 mps 751 mmHg 82%
    22:00 +12°C° 0 mm 2 mps 751 mmHg 83%
    23:00 +10°C° 0 mm 2 mps 751 mmHg 84%

    17 November, Sunday

    Time Temperature Precipitation Wind Pressure Humidity
    00:00 +10°C° 0 mm 2 mps 751 mmHg 85%
    01:00 +10°C° 0 mm 3 mps 750 mmHg 86%
    02:00 +10°C° 0 mm 3 mps 750 mmHg 86%
    03:00 +10°C° 0 mm 4 mps 750 mmHg 86%
    04:00 +10°C° 0 mm 4 mps 750 mmHg 85%
    05:00 +8°C° 0 mm 5 mps 750 mmHg 84%
    06:00 +8°C° 0 mm 5 mps 750 mmHg 84%
    07:00 +8°C° 0 mm 5 mps 750 mmHg 83%
    08:00 +8°C° 0 mm 6 mps 750 mmHg 82%
    09:00 +9°C° 0 mm 6 mps 750 mmHg 82%
    10:00 +9°C° 0 mm 7 mps 750 mmHg 81%
    11:00 +9°C° 0 mm 7 mps 750 mmHg 80%
    12:00 +10°C° 0 mm 7 mps 749 mmHg 80%
    13:00 +10°C° 0 mm 7 mps 749 mmHg 79%
    14:00 +9°C° 0 mm 7 mps 749 mmHg 81%
    15:00 +9°C° 0 mm 6 mps 749 mmHg 83%
    16:00 +9°C° 0 mm 6 mps 749 mmHg 85%
    17:00 +9°C° 0 mm 6 mps 748 mmHg 86%
    18:00 +9°C° 0 mm 6 mps 748 mmHg 86%
    19:00 +9°C° 0 mm 6 mps 748 mmHg 86%
    20:00 +8°C° 0 mm 6 mps 748 mmHg 87%
    21:00 +8°C° 0 mm 6 mps 748 mmHg 87%
    22:00 +8°C° 0 mm 6 mps 748 mmHg 88%
    23:00 +8°C° 0 mm 6 mps 748 mmHg 89%
    Show more